Location: Ottawa
(45.4167°N, 75.7000°W)
Time: 23:32:46
(UTC-04:00)

N. Korean satellite - Pass Details

Date: 12 October 2017
Orbit: 459 x 517 km, 97.2° (Epoch: 19 October)

Event Time Altitude Azimuth Distance (km) Brightness Sun altitude
Rises 20:11:27 0° 212° (SSW) 2,553 10.5 -19.9°
Reaches altitude 10° 20:14:34 10° 242° (WSW) 1,665 10.0 -20.5°
Maximum altitude 20:16:11 13° 269° (W) 1,504 10.1 -20.7°
Drops below altitude 10° 20:17:48 10° 296° (WNW) 1,657 10.3 -21.0°
Sets 20:20:53 0° 327° (NNW) 2,529 10.9 -21.6°
